TimeEDT,TemperatureF,Dew PointF,Humidity,Sea Level PressureIn,VisibilityMPH,Wind Direction,Wind SpeedMPH,Gust SpeedMPH,PrecipitationIn,Events,Conditions,WindDirDegrees,DateUTC
12:15 AM,59.0,58.6,99,30.19,3.0,Calm,Calm,-,N/A,,Scattered Clouds,0,2013-10-05 04:15:00
12:35 AM,59.0,58.8,99,30.19,5.0,Calm,Calm,-,N/A,,Scattered Clouds,0,2013-10-05 04:35:00
12:55 AM,58.3,58.1,99,30.19,3.0,Calm,Calm,-,N/A,,Clear,0,2013-10-05 04:55:00
1:15 AM,57.7,57.2,98,30.18,7.0,Calm,Calm,-,N/A,,Clear,0,2013-10-05 05:15:00
1:35 AM,57.4,57.2,99,30.18,4.0,Calm,Calm,-,N/A,,Clear,0,2013-10-05 05:35:00
1:55 AM,56.8,56.5,99,30.18,3.0,Calm,Calm,-,N/A,,Clear,0,2013-10-05 05:55:00
2:15 AM,56.7,56.5,99,30.18,2.5,Calm,Calm,-,N/A,,Scattered Clouds,0,2013-10-05 06:15:00
2:35 AM,56.3,56.1,99,30.18,4.0,Calm,Calm,-,N/A,,Scattered Clouds,0,2013-10-05 06:35:00
2:55 AM,55.9,55.9,100,30.18,3.0,Calm,Calm,-,N/A,,Scattered Clouds,0,2013-10-05 06:55:00
3:15 AM,56.5,56.3,99,30.18,4.0,Calm,Calm,-,N/A,,Clear,0,2013-10-05 07:15:00
3:35 AM,55.6,55.4,99,30.18,3.0,Calm,Calm,-,N/A,,Clear,0,2013-10-05 07:35:00
3:55 AM,55.2,55.0,99,30.18,2.0,Calm,Calm,-,N/A,,Clear,0,2013-10-05 07:55:00
4:15 AM,55.2,55.2,100,30.18,1.5,Calm,Calm,-,N/A,,Mostly Cloudy,0,2013-10-05 08:15:00
4:35 AM,55.0,55.0,100,30.18,0.8,Calm,Calm,-,N/A,,Overcast,0,2013-10-05 08:35:00
4:55 AM,54.5,54.5,100,30.18,0.5,Calm,Calm,-,N/A,Fog,Fog,0,2013-10-05 08:55:00
5:15 AM,54.7,54.7,100,30.18,0.2,Calm,Calm,-,N/A,Fog,Fog,0,2013-10-05 09:15:00
5:35 AM,54.5,54.5,100,30.19,0.8,Calm,Calm,-,N/A,,Overcast,0,2013-10-05 09:35:00
5:55 AM,54.5,54.5,100,30.19,5.0,Calm,Calm,-,N/A,,Mostly Cloudy,0,2013-10-05 09:55:00
6:15 AM,54.1,54.1,100,30.19,5.0,Calm,Calm,-,N/A,,Mostly Cloudy,0,2013-10-05 10:15:00
6:35 AM,53.8,53.6,99,30.20,4.0,Calm,Calm,-,N/A,,Scattered Clouds,0,2013-10-05 10:35:00
6:55 AM,54.0,54.0,100,30.20,0.8,Calm,Calm,-,N/A,,Mostly Cloudy,0,2013-10-05 10:55:00
7:15 AM,53.8,53.8,100,30.20,4.0,Calm,Calm,-,N/A,,Scattered Clouds,0,2013-10-05 11:15:00
7:35 AM,53.6,53.2,99,30.20,2.5,Calm,Calm,-,N/A,,Scattered Clouds,0,2013-10-05 11:35:00
7:55 AM,53.2,53.1,99,30.20,2.5,Calm,Calm,-,N/A,,Mostly Cloudy,0,2013-10-05 11:55:00
8:15 AM,54.3,54.3,100,30.20,3.0,Calm,Calm,-,N/A,,Scattered Clouds,0,2013-10-05 12:15:00
8:35 AM,55.9,55.8,99,30.20,4.0,Calm,Calm,-,N/A,,Clear,0,2013-10-05 12:35:00
8:55 AM,57.2,57.2,100,30.20,5.0,Calm,Calm,-,N/A,,Clear,0,2013-10-05 12:55:00
9:15 AM,59.2,58.5,97,30.20,7.0,Calm,Calm,-,N/A,,Clear,0,2013-10-05 13:15:00
9:35 AM,60.8,59.5,96,30.20,10.0,Calm,Calm,-,N/A,,Clear,0,2013-10-05 13:35:00
9:55 AM,63.7,60.8,90,30.20,10.0,Calm,Calm,-,N/A,,Clear,0,2013-10-05 13:55:00
10:15 AM,65.8,61.7,86,30.19,10.0,Calm,Calm,-,N/A,,Clear,0,2013-10-05 14:15:00
10:35 AM,67.8,61.7,81,30.19,10.0,Calm,Calm,-,N/A,,Clear,0,2013-10-05 14:35:00
10:55 AM,71.1,62.8,75,30.19,10.0,SSW,3.5,-,N/A,,Clear,210,2013-10-05 14:55:00
11:15 AM,73.0,62.6,70,30.18,10.0,Calm,Calm,-,N/A,,Clear,0,2013-10-05 15:15:00
11:35 AM,74.5,62.4,66,30.18,10.0,SSW,3.5,-,N/A,,Clear,210,2013-10-05 15:35:00
11:55 AM,75.4,63.1,66,30.18,10.0,Calm,Calm,-,N/A,,Clear,0,2013-10-05 15:55:00
12:15 PM,77.4,62.4,60,30.17,10.0,Calm,Calm,-,N/A,,Clear,0,2013-10-05 16:15:00
12:35 PM,79.0,63.1,58,30.17,10.0,Calm,Calm,-,N/A,,Clear,0,2013-10-05 16:35:00
12:55 PM,79.0,63.0,58,30.16,10.0,West,3.5,-,N/A,,Clear,270,2013-10-05 16:55:00
1:15 PM,80.1,63.9,58,30.15,10.0,Calm,Calm,-,N/A,,Clear,0,2013-10-05 17:15:00
1:35 PM,80.4,63.0,55,30.14,10.0,West,6.9,-,N/A,,Clear,270,2013-10-05 17:35:00
1:55 PM,81.5,63.3,54,30.13,10.0,WNW,4.6,-,N/A,,Clear,290,2013-10-05 17:55:00
2:15 PM,82.2,62.1,50,30.12,10.0,West,8.1,-,N/A,,Clear,280,2013-10-05 18:15:00
2:35 PM,83.7,61.7,47,30.11,10.0,SW,5.8,-,N/A,,Scattered Clouds,220,2013-10-05 18:35:00
2:55 PM,84.0,61.2,46,30.11,10.0,South,8.1,-,N/A,,Scattered Clouds,180,2013-10-05 18:55:00
3:15 PM,83.5,59.2,44,30.10,10.0,SSE,5.8,-,N/A,,Clear,160,2013-10-05 19:15:00
3:35 PM,83.8,59.5,44,30.10,10.0,South,5.8,-,N/A,,Clear,170,2013-10-05 19:35:00
3:55 PM,83.8,59.9,44,30.09,10.0,WSW,3.5,-,N/A,,Clear,240,2013-10-05 19:55:00
4:15 PM,83.8,60.1,44,30.09,10.0,South,6.9,-,N/A,,Clear,180,2013-10-05 20:15:00
4:35 PM,83.7,60.4,45,30.08,10.0,South,6.9,-,N/A,,Clear,180,2013-10-05 20:35:00
4:55 PM,83.5,60.8,46,30.08,10.0,SW,6.9,-,N/A,,Clear,220,2013-10-05 20:55:00
5:15 PM,82.8,60.8,47,30.07,10.0,SW,5.8,-,N/A,,Clear,220,2013-10-05 21:15:00
5:35 PM,82.4,61.7,49,30.07,10.0,SSW,4.6,-,N/A,,Clear,200,2013-10-05 21:35:00
5:55 PM,81.1,63.0,54,30.07,10.0,SW,4.6,-,N/A,,Clear,230,2013-10-05 21:55:00
6:15 PM,80.1,63.0,56,30.07,10.0,SW,3.5,-,N/A,,Clear,220,2013-10-05 22:15:00
6:35 PM,78.4,63.0,59,30.07,10.0,WSW,3.5,-,N/A,,Clear,240,2013-10-05 22:35:00
6:55 PM,72.5,64.8,77,30.08,10.0,Calm,Calm,-,N/A,,Clear,0,2013-10-05 22:55:00
7:15 PM,70.5,64.8,82,30.08,10.0,Calm,Calm,-,N/A,,Clear,0,2013-10-05 23:15:00
7:35 PM,67.5,64.2,89,30.09,10.0,Calm,Calm,-,N/A,,Clear,0,2013-10-05 23:35:00
7:55 PM,68.0,64.2,88,30.10,10.0,Calm,Calm,-,N/A,,Clear,0,2013-10-05 23:55:00
8:15 PM,65.8,63.1,91,30.10,10.0,Calm,Calm,-,N/A,,Clear,0,2013-10-06 00:15:00
8:35 PM,64.8,62.6,93,30.11,10.0,Calm,Calm,-,N/A,,Clear,0,2013-10-06 00:35:00
8:55 PM,63.5,62.1,95,30.12,10.0,Calm,Calm,-,N/A,,Clear,0,2013-10-06 00:55:00
9:15 PM,63.5,61.7,94,30.12,10.0,Calm,Calm,-,N/A,,Clear,0,2013-10-06 01:15:00
9:35 PM,62.8,61.7,96,30.12,10.0,Calm,Calm,-,N/A,,Clear,0,2013-10-06 01:35:00
9:55 PM,61.9,61.2,97,30.13,10.0,Calm,Calm,-,N/A,,Scattered Clouds,0,2013-10-06 01:55:00
10:15 PM,61.3,60.6,97,30.12,7.0,Calm,Calm,-,N/A,,Mostly Cloudy,0,2013-10-06 02:15:00
10:35 PM,61.7,61.2,98,30.12,7.0,Calm,Calm,-,N/A,,Mostly Cloudy,0,2013-10-06 02:35:00
10:55 PM,60.8,60.4,99,30.12,7.0,Calm,Calm,-,N/A,,Mostly Cloudy,0,2013-10-06 02:55:00
11:15 PM,60.8,60.1,97,30.11,7.0,Calm,Calm,-,N/A,,Scattered Clouds,0,2013-10-06 03:15:00
11:35 PM,60.3,59.9,99,30.11,7.0,Calm,Calm,-,N/A,,Scattered Clouds,0,2013-10-06 03:35:00
11:55 PM,59.9,59.5,99,30.11,5.0,Calm,Calm,-,N/A,,Clear,0,2013-10-06 03:55:00